Regional Weather Roundup
Issued by NWS Little Rock, AR

Home | Current Version | Previous Version | Text Only | Print | Product List | Glossary Off
Versions: 1 2 3 4 5 6 7 8 9 10 11 12 13 14 15 16 17 18 19 20 21 22 23 24 25 26 27 28 29 30 31 32

000
ASUS44 KLZK 251812
RWRLZK

WEATHER ROUNDUP FOR ARKANSAS
NATIONAL WEATHER SERVICE LITTLE ROCK AR
100 PM CDT MON SEP 25 2017

NOTE: "FAIR" INDICATES FEW OR NO CLOUDS BELOW 12,000 FEET WITH NO
SIGNIFICANT WEATHER AND/OR OBSTRUCTIONS TO VISIBILITY.

ARZ001-003-010-029-251900-
NORTHWEST ARKANSAS

CITY           SKY/WX    TMP DP  RH WIND       PRES   REMARKS
FAYETTEVILLE   MOSUNNY   82  64  54 SE9       29.98F
6HR MIN TEMP:  58; 6HR MAX TEMP:  84;

FORT SMITH     PTSUNNY   87  66  49 SE6       29.93F HX  89
6HR MIN TEMP:  68; 6HR MAX TEMP:  89;

HARRISON       MOSUNNY   85  61  44 SE13      29.99F HX  85
6HR MIN TEMP:  64; 6HR MAX TEMP:  86;

BENTONVILLE    MOSUNNY   84  64  50 S14       29.99F HX  85
6HR MIN TEMP:  67; 6HR MAX TEMP:  85;

ROGERS         MOSUNNY   84  64  50 S8        29.98F HX  85
6HR MIN TEMP:  67; 6HR MAX TEMP:  84;

SILOAM SPGS    PTSUNNY   85  64  49 SE10      29.97F HX  86
6HR MIN TEMP:  65; 6HR MAX TEMP:  85;

HIGHFILL       MOSUNNY   85  63  47 S9        29.98F HX  86
6HR MIN TEMP:  65; 6HR MAX TEMP:  86;

SPRINGDALE     MOSUNNY   82  63  51 S10       29.99F
$$

ARZ004-005-016-251900-
NORTH CENTRAL ARKANSAS

CITY           SKY/WX    TMP DP  RH WIND       PRES   REMARKS
BATESVILLE     PTSUNNY   86  67  52 SE6       29.98F HX  89
FLIPPIN        PTSUNNY   86  64  47 VRB3      29.96F HX  87
6HR MIN TEMP:  64; 6HR MAX TEMP:  88;

MTN HOME       MOSUNNY   87  61  41 S13       29.97F HX  87
6HR MIN TEMP:  65; 6HR MAX TEMP:  87;

$$

ARZ040-041-251900-
WEST CENTRAL ARKANSAS

CITY           SKY/WX    TMP DP  RH WIND       PRES   REMARKS
MENA           MOSUNNY   90  64  43 SE3       29.97F HX  91
MOUNT IDA      SUNNY     87  63  44 SE6       29.94F HX  88
6HR MIN TEMP:  64; 6HR MAX TEMP:  87;

$$

ARZ009-017-025-026-028-251900-
NORTHEAST ARKANSAS

CITY           SKY/WX    TMP DP  RH WIND       PRES   REMARKS
JONESBORO      MOSUNNY   89  67  47 S7        29.97F HX  92
6HR MIN TEMP:  66; 6HR MAX TEMP:  89; 6HR PCP: TRACE;

NEWPORT        MOSUNNY   88  65  46 S6        29.97F HX  90
6HR MIN TEMP:  63; 6HR MAX TEMP:  88;

WALNUT RIDGE   MOSUNNY   90  66  45 SE13      29.97F HX  92
6HR MIN TEMP:  65; 6HR MAX TEMP:  90;

BLYTHEVILLE    MOSUNNY   87  68  52 SE6       29.99F HX  90
6HR MIN TEMP:  66; 6HR MAX TEMP:  87;

NW BLYTHEVILLE MOSUNNY   88  66  48 S3        29.98F HX  90
$$

ARZ022-023-033-042-044-251900-
CENTRAL ARKANSAS

CITY           SKY/WX    TMP DP  RH WIND       PRES   REMARKS
LITTLE ROCK    MOSUNNY   87  67  51 SE12      29.96F HX  90
6HR MIN TEMP:  66; 6HR MAX TEMP:  87;

JACKSONVILLE   MOSUNNY   89  67  48 E7        29.96F HX  92
6HR MIN TEMP:  64; 6HR MAX TEMP:  89;

SEARCY         PTSUNNY   87  68  52 SE6       29.98F HX  90
6HR MIN TEMP:  65; 6HR MAX TEMP:  88;

HOT SPRINGS    SUNNY     89  64  43 S10       29.94F HX  90
6HR MIN TEMP:  67; 6HR MAX TEMP:  90;

RUSSELLVILLE   MOSUNNY   86  66  51 S7        29.94F HX  88
6HR MIN TEMP:  64; 6HR MAX TEMP:  87;

CLINTON        FAIR      84  66  54 VRB6      29.96F HX  86
$$

ARZ036-251900-
EAST ARKANSAS

CITY           SKY/WX    TMP DP  RH WIND       PRES   REMARKS
WEST MEMPHIS   PTSUNNY   88  67  49 SE8       29.97F HX  91
6HR MIN TEMP:  67; 6HR MAX TEMP:  89;

$$

ARZ050-053-066-070-073-251900-
SOUTHWEST ARKANSAS

CITY           SKY/WX    TMP DP  RH WIND       PRES   REMARKS
ARKADELPHIA    FAIR      88  68  51 SE6       29.94F HX  91
6HR MIN TEMP:  64; 6HR MAX TEMP:  88;

CAMDEN         MOSUNNY   90  64  43 SE7       29.94F HX  91
TEXARKANA      MOSUNNY   86  67  52 SE8       29.94S HX  89
6HR MIN TEMP:  65; 6HR MAX TEMP:  87;

EL DORADO      MOSUNNY   85  66  53 E6        29.95F HX  87
6HR MIN TEMP:  65; 6HR MAX TEMP:  86;

DE QUEEN       MOSUNNY   87  69  54 S7        29.92F HX  91
6HR MIN TEMP:  63; 6HR MAX TEMP:  87;

$$

ARZ056-057-069-251900-
SOUTHEAST ARKANSAS

CITY           SKY/WX    TMP DP  RH WIND       PRES   REMARKS
PINE BLUFF     PTSUNNY   87  65  47 SE9       29.96F HX  89
6HR MIN TEMP:  64; 6HR MAX TEMP:  88;

STUTTGART      MOSUNNY   87  65  47 NE5       29.97F HX  89
6HR MIN TEMP:  68; 6HR MAX TEMP:  89;

MONTICELLO     SUNNY     86  66  51 E7        29.96F HX  88
6HR MIN TEMP:  66; 6HR MAX TEMP:  86;


$$






USA.gov is the U.S. government's official web portal to all federal, state and local government web resources and services.